Weather History for Hurlburt Field, FL

Change the Weather History Date:

Sunday, January 20, 2013

  Actual Average Record
Temperature  
Mean Temperature 54 °F -  
Max Temperature 66 °F 59 °F 73 °F (1999)
Min Temperature 41 °F 40 °F 28 °F (2001)
Degree Days  
Heating Degree Days 12    
Growing Degree Days 4 (Base 50)    
Moisture  
Dew Point 50 °F    
Average Humidity 81    
Maximum Humidity 100    
Minimum Humidity 60    
Precipitation  
Precipitation 0.00 in - - ()
Sea Level Pressure  
Sea Level Pressure 30.19 in    
Wind  
Wind Speed 6 mph (NNW)    
Max Wind Speed 9 mph    
Max Gust Speed -    
Visibility 10 miles    
Events Rain    
Averages and records for this station are not official NWS values.
T = Trace of Precipitation, MM = Missing Value Source: NWS Daily Summary

Daily Weather History Graph

Daily Weather History Graph

Search for Another Location

Airport:

Trip Planner

Search our weather history database for the weather conditions in past years. The results will help you decide how hot, cold, wet, or windy it might be!

Date:

Astronomy

Jan. 20, 2013 Rise Set
Actual Time 6:43 AM CST 5:13 PM CST
Civil Twilight 6:17 AM CST 5:38 PM CST
Nautical Twilight 5:48 AM CST 6:08 PM CST
Astronomical Twilight 5:19 AM CST 6:36 PM CST
Moon 12:12 PM CST (1/20) 1:17 AM CST (1/20)
Length of Visible Light 11h 21m
Length of Day
10h 29m
Waxing Gibbous, 66% of the Moon is Illuminated
Jan 20
Waxing Gibbous
Jan 26
Full
Feb 3
Last Quarter
Feb 10
New
Feb 17
First Quarter

Hourly Weather History & Observations

Time (CST) Temp. Windchill Dew Point Humidity Pressure Visibility Wind Dir Wind Speed Gust Speed Precip Events Conditions
12:55 AM 48.4 °F - 48.4 °F 100% 30.25 in 10.0 mi North 5.8 mph - N/A   Overcast
1:55 AM 47.3 °F - 47.3 °F 100% 30.24 in 10.0 mi NNE 4.6 mph - N/A   Mostly Cloudy
2:55 AM 45.5 °F 42.5 °F 45.5 °F 100% 30.24 in 10.0 mi North 5.8 mph - N/A   Scattered Clouds
3:55 AM 44.1 °F 41.5 °F 44.1 °F 100% 30.23 in 10.0 mi North 4.6 mph - N/A   Clear
4:55 AM 42.8 °F 40.1 °F 42.8 °F 100% 30.23 in 10.0 mi North 4.6 mph - N/A   Clear
5:55 AM 41.4 °F 36.8 °F 41.4 °F 100% 30.24 in 10.0 mi North 6.9 mph - N/A   Clear
6:55 AM 41.4 °F 36.8 °F 41.4 °F 100% 30.25 in 10.0 mi North 6.9 mph - N/A   Clear
7:55 AM 47.3 °F - 47.3 °F 100% 30.25 in 10.0 mi North 8.1 mph - N/A   Clear
8:55 AM 56.1 °F - 52.9 °F 89% 30.27 in 10.0 mi North 6.9 mph - N/A   Clear
9:55 AM 62.6 °F - 53.1 °F 71% 30.26 in 10.0 mi North 9.2 mph - N/A   Clear
10:55 AM 64.0 °F - 52.2 °F 65% 30.23 in 10.0 mi North 9.2 mph - N/A   Clear
11:15 AM 64.4 °F - 51.8 °F 64% 30.22 in 10.0 mi NNE 8.1 mph - N/A Rain Light Rain
11:43 AM 64.4 °F - 51.8 °F 64% 30.21 in 10.0 mi Variable 4.6 mph - N/A   Clear
11:55 AM 64.8 °F - 51.8 °F 63% 30.20 in 10.0 mi NNE 6.9 mph - 0.00 in   Clear
11:56 AM 64.4 °F - 51.8 °F 64% 30.20 in 10.0 mi Variable 5.8 mph - N/A Rain Light Rain
12:07 PM 64.4 °F - 51.8 °F 64% 30.19 in 10.0 mi NE 3.5 mph - N/A   Clear
12:26 PM 66.2 °F - 51.8 °F 60% 30.18 in 10.0 mi NNE 5.8 mph - N/A Rain Light Rain
12:44 PM 66.2 °F - 51.8 °F 60% 30.17 in 10.0 mi Variable 3.5 mph - N/A   Clear
12:52 PM 66.2 °F - 51.8 °F 60% 30.17 in 10.0 mi Calm Calm - N/A   Light Drizzle
12:55 PM 66.4 °F - 52.2 °F 60% 30.17 in 10.0 mi South 4.6 mph - 0.00 in   Light Drizzle
1:06 PM 66.2 °F - 53.6 °F 64% 30.16 in 10.0 mi SSW 9.2 mph - N/A   Clear
1:55 PM 64.4 °F - 52.9 °F 66% 30.14 in 10.0 mi SSW 9.2 mph - 0.00 in   Clear
2:55 PM 63.9 °F - 53.1 °F 68% 30.13 in 10.0 mi SW 9.2 mph - N/A   Clear
3:55 PM 62.8 °F - 52.7 °F 70% 30.13 in 10.0 mi SW 8.1 mph - N/A   Clear
4:55 PM 60.3 °F - 52.7 °F 76% 30.14 in 10.0 mi SW 5.8 mph - N/A   Clear
5:55 PM 58.5 °F - 52.3 °F 80% 30.14 in 10.0 mi Calm Calm - N/A   Clear
6:55 PM 52.9 °F - 50.5 °F 92% 30.14 in 10.0 mi WNW 3.5 mph - N/A   Clear
7:55 PM 54.5 °F - 50.2 °F 85% 30.15 in 10.0 mi NW 3.5 mph - N/A   Clear
8:55 PM 48.6 °F - 48.4 °F 99% 30.16 in 10.0 mi NNW 3.5 mph - N/A   Clear
9:55 PM 47.1 °F - 47.1 °F 100% 30.16 in 10.0 mi NNW 3.5 mph - N/A   Clear
10:55 PM 45.5 °F 44.2 °F 45.5 °F 100% 30.16 in 10.0 mi NNW 3.5 mph - N/A   Clear
11:55 PM 44.4 °F 42.9 °F 44.4 °F 100% 30.14 in 10.0 mi North 3.5 mph - N/A   Clear